TimeCST,TemperatureF,Dew PointF,Humidity,Sea Level PressureIn,VisibilityMPH,Wind Direction,Wind SpeedMPH,Gust SpeedMPH,PrecipitationIn,Events,Conditions,WindDirDegrees,DateUTC
12:15 AM,39.7,34.0,80,29.98,10.0,West,4.6,-,N/A,,Clear,260,2012-11-19 06:15:00
12:35 AM,36.7,32.0,83,29.98,10.0,West,5.8,-,N/A,,Clear,260,2012-11-19 06:35:00
12:55 AM,37.8,32.9,83,29.98,10.0,West,5.8,-,N/A,,Clear,260,2012-11-19 06:55:00
1:15 AM,40.5,34.0,78,29.97,10.0,West,4.6,-,N/A,,Clear,280,2012-11-19 07:15:00
1:35 AM,41.0,34.5,78,29.97,10.0,West,10.4,-,N/A,,Clear,280,2012-11-19 07:35:00
1:55 AM,41.0,34.2,77,29.97,10.0,West,10.4,-,N/A,,Clear,270,2012-11-19 07:55:00
2:15 AM,41.5,34.9,77,29.97,10.0,WSW,9.2,-,N/A,,Clear,250,2012-11-19 08:15:00
2:35 AM,44.2,36.0,73,29.98,10.0,West,9.2,-,N/A,,Clear,260,2012-11-19 08:35:00
2:55 AM,44.1,35.6,72,29.98,10.0,West,10.4,-,N/A,,Clear,260,2012-11-19 08:55:00
3:15 AM,44.8,35.1,69,29.99,10.0,West,13.8,-,N/A,,Clear,270,2012-11-19 09:15:00
3:35 AM,43.3,34.5,71,30.00,10.0,West,12.7,-,N/A,,Clear,270,2012-11-19 09:35:00
3:55 AM,43.0,34.3,72,30.00,10.0,West,12.7,-,N/A,,Clear,270,2012-11-19 09:55:00
4:15 AM,43.5,34.0,69,30.00,10.0,West,10.4,-,N/A,,Clear,280,2012-11-19 10:15:00
4:35 AM,45.1,33.6,64,30.00,10.0,WNW,9.2,-,N/A,,Clear,290,2012-11-19 10:35:00
4:55 AM,44.8,32.9,63,30.01,10.0,West,8.1,-,N/A,,Clear,270,2012-11-19 10:55:00
5:15 AM,43.9,33.1,66,30.02,10.0,West,8.1,-,N/A,,Clear,270,2012-11-19 11:15:00
5:35 AM,44.2,32.9,64,30.02,10.0,West,8.1,-,N/A,,Clear,280,2012-11-19 11:35:00
5:55 AM,41.9,32.0,68,30.02,10.0,West,4.6,-,N/A,,Clear,280,2012-11-19 11:55:00
6:15 AM,40.1,31.5,71,30.02,10.0,WNW,6.9,-,N/A,,Clear,300,2012-11-19 12:15:00
6:35 AM,39.2,31.1,73,30.04,10.0,WNW,6.9,-,N/A,,Clear,290,2012-11-19 12:35:00
6:55 AM,41.0,32.0,70,30.04,10.0,WNW,9.2,-,N/A,,Clear,290,2012-11-19 12:55:00
7:35 AM,39.6,31.5,73,30.05,10.0,West,8.1,-,N/A,,Clear,280,2012-11-19 13:35:00
7:55 AM,40.1,31.8,72,30.06,10.0,West,10.4,-,N/A,,Clear,280,2012-11-19 13:55:00
8:15 AM,41.9,32.0,68,30.07,10.0,WNW,9.2,-,N/A,,Clear,290,2012-11-19 14:15:00
8:35 AM,44.1,33.8,67,30.08,10.0,WNW,8.1,-,N/A,,Clear,300,2012-11-19 14:35:00
8:55 AM,47.5,36.0,64,30.09,10.0,NW,10.4,-,N/A,,Clear,310,2012-11-19 14:55:00
9:15 AM,49.1,35.8,60,30.10,10.0,WNW,11.5,-,N/A,,Clear,290,2012-11-19 15:15:00
9:35 AM,48.6,35.6,61,30.11,10.0,WNW,8.1,-,N/A,,Clear,290,2012-11-19 15:35:00
9:55 AM,49.3,36.0,60,30.12,10.0,WNW,8.1,-,N/A,,Clear,290,2012-11-19 15:55:00
10:15 AM,51.3,36.3,57,30.13,10.0,NW,10.4,-,N/A,,Clear,310,2012-11-19 16:15:00
10:35 AM,52.3,35.1,52,30.13,10.0,NW,12.7,-,N/A,,Clear,310,2012-11-19 16:35:00
10:55 AM,52.3,34.7,51,30.13,10.0,NW,13.8,-,N/A,,Clear,310,2012-11-19 16:55:00
11:15 AM,53.1,35.1,50,30.13,10.0,NW,11.5,-,N/A,,Clear,310,2012-11-19 17:15:00
11:35 AM,55.2,35.4,47,30.13,10.0,NW,11.5,-,N/A,,Clear,320,2012-11-19 17:35:00
11:55 AM,57.7,35.8,44,30.13,10.0,NW,10.4,-,N/A,,Clear,310,2012-11-19 17:55:00
12:15 PM,59.9,35.6,40,30.11,10.0,NW,10.4,-,N/A,,Clear,320,2012-11-19 18:15:00
12:35 PM,61.0,34.9,38,30.11,10.0,NW,10.4,-,N/A,,Clear,320,2012-11-19 18:35:00
1:15 PM,63.7,34.7,34,30.10,10.0,NW,12.7,17.3,N/A,,Clear,310,2012-11-19 19:15:00
1:35 PM,64.6,34.3,32,30.09,10.0,NW,10.4,16.1,N/A,,Clear,310,2012-11-19 19:35:00
1:55 PM,65.3,34.0,31,30.09,10.0,WNW,11.5,-,N/A,,Clear,300,2012-11-19 19:55:00
2:15 PM,65.7,33.4,30,30.09,10.0,NW,13.8,19.6,N/A,,Clear,310,2012-11-19 20:15:00
2:35 PM,65.8,32.9,29,30.09,10.0,NW,12.7,20.7,N/A,,Clear,310,2012-11-19 20:35:00
2:55 PM,65.8,32.5,29,30.09,10.0,NW,13.8,-,N/A,,Clear,310,2012-11-19 20:55:00
3:15 PM,65.3,32.2,29,30.10,10.0,WNW,10.4,18.4,N/A,,Clear,300,2012-11-19 21:15:00
3:35 PM,65.3,32.0,29,30.10,10.0,NW,13.8,-,N/A,,Clear,310,2012-11-19 21:35:00
3:55 PM,65.1,31.8,29,30.10,10.0,NW,11.5,17.3,N/A,,Clear,310,2012-11-19 21:55:00
4:15 PM,63.5,31.1,30,30.10,10.0,NW,10.4,-,N/A,,Clear,320,2012-11-19 22:15:00
4:35 PM,63.7,31.3,30,30.11,10.0,NW,6.9,-,N/A,,Clear,320,2012-11-19 22:35:00
4:55 PM,61.5,31.1,32,30.12,10.0,NW,6.9,-,N/A,,Clear,320,2012-11-19 22:55:00
5:15 PM,59.0,30.7,34,30.12,10.0,NNW,6.9,-,N/A,,Clear,330,2012-11-19 23:15:00
5:35 PM,56.7,29.8,36,30.12,10.0,NNW,8.1,-,N/A,,Clear,340,2012-11-19 23:35:00
5:55 PM,53.8,29.5,39,30.13,10.0,NW,6.9,-,N/A,,Clear,320,2012-11-19 23:55:00
6:15 PM,49.3,28.6,45,30.13,10.0,NW,5.8,-,N/A,,Clear,310,2012-11-20 00:15:00
6:35 PM,46.9,28.2,48,30.14,10.0,NW,6.9,-,N/A,,Clear,310,2012-11-20 00:35:00
6:55 PM,45.7,27.7,49,30.15,10.0,WNW,4.6,-,N/A,,Clear,300,2012-11-20 00:55:00
7:15 PM,46.8,28.6,49,30.15,10.0,WNW,5.8,-,N/A,,Clear,300,2012-11-20 01:15:00
7:35 PM,45.5,28.2,51,30.15,10.0,WNW,4.6,-,N/A,,Clear,290,2012-11-20 01:35:00
7:55 PM,45.5,28.4,51,30.16,10.0,NW,4.6,-,N/A,,Clear,310,2012-11-20 01:55:00
8:15 PM,44.4,27.7,52,30.16,10.0,NW,8.1,-,N/A,,Clear,320,2012-11-20 02:15:00
8:35 PM,43.0,27.5,54,30.17,10.0,NW,6.9,-,N/A,,Clear,320,2012-11-20 02:35:00
9:15 PM,38.3,25.5,60,30.18,10.0,WNW,5.8,-,N/A,,Clear,300,2012-11-20 03:15:00
9:35 PM,39.4,26.4,60,30.18,10.0,NNW,4.6,-,N/A,,Clear,330,2012-11-20 03:35:00
9:55 PM,38.1,25.9,61,30.18,10.0,NW,4.6,-,N/A,,Clear,310,2012-11-20 03:55:00
10:15 PM,35.8,24.6,64,30.19,10.0,NW,4.6,-,N/A,,Clear,310,2012-11-20 04:15:00
10:35 PM,37.6,25.9,63,30.18,10.0,Calm,Calm,-,N/A,,Clear,0,2012-11-20 04:35:00
10:55 PM,35.1,24.8,66,30.18,10.0,WNW,3.5,-,N/A,,Clear,290,2012-11-20 04:55:00
11:15 PM,34.5,25.2,69,30.18,10.0,WNW,4.6,-,N/A,,Clear,290,2012-11-20 05:15:00
11:35 PM,35.2,25.2,67,30.19,10.0,West,4.6,-,N/A,,Clear,270,2012-11-20 05:35:00
11:55 PM,36.1,26.1,67,30.19,10.0,West,3.5,-,N/A,,Clear,280,2012-11-20 05:55:00